Wind_Speed
18 17 17 18 18 18 20 22 21 17 16 16 15 16 15 16 18 20 23 13 19 22 15 11 11 11 12
18 16 17 18 18 20 21 21 19 18 16 14 15 14 14 15 17 22 17 11 17 19 15 7 7 8 9
16 16 17 18 19 20 20 20 18 17 14 14 13 13 14 15 16 19 14 8 15 16 11 10 3 0 4
17 17 17 18 19 20 19 17 15 15 13 13 12 14 15 16 17 19 13 5 10 8 12 11 7 5 5
18 18 18 18 18 19 18 15 13 12 11 11 11 13 13 15 14 16 12 5 5 11 6 13 18 17 14
18 18 17 17 18 17 13 12 8 8 7 8 8 11 12 12 13 15 9 5 3 6 11 6 4 2 3
19 18 17 16 16 14 11 9 8 9 9 9 9 11 11 12 13 12 8 6 9 3 8 8 9 20 18
16 17 16 15 14 13 10 10 8 10 10 10 9 10 12 14 15 11 6 6 9 10 7 9 14 14 8
17 17 16 14 13 12 11 9 9 10 9 9 10 12 17 14 12 10 7 8 9 13 13 10 10 11 10
16 15 13 12 13 12 13 12 11 9 10 9 8 11 4 2 5 7 6 7 7 10 14 16 13 13 15
16 14 14 13 14 14 13 14 14 12 10 9 9 10 8 8 7 5 7 6 5 7 10 14 16 17 16
15 14 13 14 14 14 12 12 14 15 16 15 17 11 10 8 5 2 5 6 6 6 7 9 12 15 18
14 14 14 15 15 14 13 12 12 12 12 13 12 9 10 9 5 4 3 7 7 7 7 7 8 9 10
14 15 15 15 14 14 13 12 12 12 11 11 11 10 10 10 8 7 7 4 6 7 8 7 7 7 9
17 15 15 15 15 14 14 13 12 10 11 11 10 9 9 9 9 9 9 8 7 5 5 5 6 8 9
18 17 16 15 15 14 13 13 12 12 12 9 9 8 8 8 9 10 9 9 9 7 7 6 7 9 9
18 17 16 17 17 15 13 12 12 12 12 12 11 11 9 9 9 7 5 6 6 6 7 9 8 11 11
Wind_Direction
239 245 253 265 276 287 293 301 303 299 291 284 289 298 306 310 314 320 319 320 329 330 336 317 295 270 257
245 252 260 267 275 286 295 298 299 295 286 276 287 299 305 306 310 319 326 321 340 333 342 330 302 279 255
251 258 263 270 278 286 292 296 295 292 281 285 296 299 304 304 312 316 321 318 357 347 350 341 332 196 219
256 257 265 271 278 284 291 292 296 289 285 283 292 294 301 310 313 315 313 308 16 34 76 38 44 147 132
252 257 265 272 281 286 287 286 291 291 285 288 297 299 299 302 307 308 309 285 32 54 98 87 86 112 131
258 263 268 275 278 281 274 278 289 285 276 278 283 288 293 292 297 307 292 255 205 68 71 65 101 97 114
265 267 268 269 271 267 264 270 268 269 277 283 291 288 289 290 294 288 282 244 216 166 105 102 135 120 88
260 264 265 263 262 256 260 262 258 263 273 280 289 291 293 288 283 277 273 240 218 206 193 133 119 147 114
265 262 258 253 249 247 246 247 251 265 271 278 291 303 294 286 267 260 254 237 215 206 209 200 206 203 148
257 253 249 246 246 247 247 250 245 263 268 267 284 309 311 264 329 244 232 233 224 207 209 210 213 223 211
252 247 243 241 245 247 245 245 241 242 256 265 276 278 298 287 283 307 224 217 213 184 198 207 214 210 205
241 238 238 239 242 248 249 249 248 243 242 248 262 273 254 274 259 272 205 193 186 182 185 187 200 213 221
236 236 237 239 243 245 244 243 246 245 246 255 258 239 241 255 239 197 201 204 197 192 190 194 196 195 205
237 235 237 238 241 242 243 240 241 238 244 243 242 238 236 241 232 225 212 187 184 203 205 207 206 209 209
238 237 237 234 235 236 238 235 235 235 234 232 231 230 231 232 228 227 221 210 215 218 220 211 219 229 227
233 231 230 227 231 234 234 230 230 229 230 224 224 223 224 222 224 220 225 224 225 231 243 240 242 245 237
231 230 227 227 230 230 231 229 227 227 227 226 225 222 219 214 209 204 201 223 226 224 237 249 238 249 251
Height
1522 1523 1524 1524 1525 1524 1522 1521 1518 1516 1515 1514 1514 1513 1512 1512 1510 1507 1502 1497 1495 1490 1485 1482 1483 1482 1482
1519 1519 1520 1519 1518 1518 1517 1515 1513 1513 1511 1508 1508 1509 1509 1506 1506 1506 1500 1499 1492 1487 1483 1480 1481 1479 1478
1514 1514 1514 1514 1514 1514 1513 1511 1509 1508 1509 1508 1507 1507 1506 1504 1502 1501 1498 1497 1491 1486 1482 1480 1480 1480 1479
1509 1509 1509 1510 1509 1509 1508 1506 1506 1506 1505 1506 1503 1504 1503 1503 1503 1501 1498 1496 1493 1490 1483 1483 1483 1480 1481
1504 1503 1504 1504 1504 1504 1503 1502 1500 1501 1501 1502 1502 1502 1500 1501 1499 1499 1497 1496 1496 1494 1489 1486 1487 1485 1486
1499 1498 1496 1497 1498 1498 1497 1498 1496 1499 1497 1498 1497 1498 1496 1495 1495 1497 1494 1492 1494 1494 1493 1491 1490 1491 1489
1495 1495 1492 1492 1495 1494 1492 1492 1493 1495 1494 1495 1494 1494 1494 1495 1493 1491 1489 1491 1492 1494 1495 1494 1494 1494 1495
1490 1490 1489 1488 1489 1489 1489 1491 1491 1493 1492 1491 1491 1491 1491 1491 1491 1490 1488 1490 1492 1492 1495 1494 1495 1496 1497
1484 1484 1485 1485 1485 1486 1486 1487 1488 1491 1490 1489 1489 1488 1490 1487 1488 1486 1485 1488 1489 1490 1494 1493 1495 1498 1500
1479 1479 1480 1480 1482 1483 1483 1486 1485 1487 1488 1490 1487 1487 1486 1486 1488 1484 1482 1486 1487 1487 1491 1491 1493 1495 1497
1475 1475 1475 1476 1478 1479 1478 1481 1482 1484 1486 1488 1483 1485 1489 1489 1488 1484 1484 1483 1484 1485 1489 1490 1492 1494 1495
1470 1470 1472 1472 1473 1476 1475 1477 1478 1480 1480 1479 1482 1480 1484 1486 1486 1484 1485 1484 1481 1483 1487 1489 1490 1492 1493
1465 1467 1469 1469 1470 1472 1472 1472 1474 1475 1474 1479 1479 1476 1481 1486 1484 1483 1484 1483 1482 1482 1485 1486 1487 1489 1490
1461 1463 1464 1466 1468 1469 1470 1469 1471 1471 1474 1474 1475 1476 1478 1482 1482 1483 1483 1482 1481 1482 1483 1485 1485 1487 1488
1457 1458 1460 1461 1464 1463 1465 1465 1468 1468 1470 1471 1472 1474 1476 1478 1479 1481 1480 1480 1479 1480 1482 1483 1484 1484 1486
1454 1454 1455 1457 1460 1461 1462 1462 1464 1466 1467 1468 1470 1472 1475 1475 1476 1477 1477 1477 1477 1478 1480 1480 1481 1482 1483
1449 1449 1451 1454 1455 1456 1457 1458 1461 1463 1463 1466 1468 1470 1472 1473 1474 1474 1473 1474 1475 1475 1476 1478 1479 1479 1480